Location: Rostock
(54.0884°N, 12.1234°E)
Time: 22:19:21
(UTC+01:00)

Envisat - Visible Passes

Search period start: 21 November 2017 00:00
Search period end: 01 December 2017 00:00
Orbit: 764 x 766 km, 98.2° (Epoch: 21 November)

Date Brightness Start Highest point End Pass type
(mag) Time Alt. Az. Time Alt. Az. Time Alt. Az.
21 Nov 6.0 07:09:35 10° ENE 07:11:25 12° E 07:13:16 10° ESE visible
21 Nov 4.3 18:35:46 25° NNE 18:35:46 25° NNE 18:38:26 10° N visible
21 Nov 5.1 20:15:59 22° NNW 20:15:59 22° NNW 20:17:48 10° NNW visible
22 Nov 4.5 17:58:42 18° NE 17:58:42 18° NE 18:01:09 10° N visible
22 Nov 4.6 19:38:55 27° NNW 19:38:55 27° NNW 19:41:08 10° NNW visible
22 Nov 6.0 21:19:07 10° NW 21:19:07 10° NW 21:19:08 10° NW visible
23 Nov 4.8 17:21:38 12° NE 17:21:38 12° NE 17:23:10 10° NNE visible
23 Nov 4.3 19:01:51 27° N 19:01:51 27° N 19:04:16 10° N visible
23 Nov 5.5 20:42:03 16° NW 20:42:03 16° NW 20:43:10 10° NNW visible
24 Nov 4.4 18:24:47 22° NNE 18:24:47 22° NNE 18:27:11 10° N visible
24 Nov 5.0 20:04:59 21° NNW 20:04:59 21° NNW 20:06:43 10° NNW visible
25 Nov 4.7 17:47:42 16° NE 17:47:42 16° NE 17:49:46 10° NNE visible
25 Nov 4.6 19:27:55 25° N 19:27:55 25° N 19:30:00 10° NNW visible
25 Nov 6.0 21:08:08 11° NW 21:08:08 11° NW 21:08:20 10° NW visible
26 Nov 4.4 18:50:50 24° N 18:50:50 24° N 18:53:04 10° N visible
26 Nov 5.5 20:31:03 16° NNW 20:31:03 16° NNW 20:32:10 10° NNW visible
27 Nov 4.5 18:13:45 19° NNE 18:13:45 19° NNE 18:15:55 10° N visible
27 Nov 5.0 19:53:58 21° NNW 19:53:58 21° NNW 19:55:38 10° NNW visible
28 Nov 4.8 17:36:40 14° NE 17:36:40 14° NE 17:38:20 10° NNE visible
28 Nov 4.6 19:16:53 23° N 19:16:53 23° N 19:18:50 10° N visible
28 Nov 5.9 20:57:05 12° NW 20:57:05 12° NW 20:57:26 10° NW visible
29 Nov 5.9 07:12:35 10° NE 07:14:52 13° E 07:17:08 10° ESE visible
29 Nov 4.5 18:39:47 22° NNE 18:39:47 22° NNE 18:41:50 10° N visible
29 Nov 5.4 20:20:00 17° NNW 20:20:00 17° NNW 20:21:08 10° NNW visible
30 Nov 4.6 18:02:42 17° NNE 18:02:42 17° NNE 18:04:36 10° N visible
30 Nov 4.9 19:42:54 21° NNW 19:42:54 21° NNW 19:44:30 10° NNW visible
